Location: Newark
(43.6583°N, 1.6617°E)
Time: 23:34:19
(UTC+00:00)

Vanguard 1 Rocket - Pass Details

Date: 27 August 2019
Orbit: 652 x 4225 km, 34.3° (Epoch: 15 September)

Event Time Altitude Azimuth Distance (km) Brightness Sun altitude
Rises 06:32:51 0° 258° (WSW) 3,515 9.8 13.8°
Reaches altitude 10° 06:36:10 10° 235° (SW) 2,934 9.6 14.4°
Maximum altitude 06:40:15 16° 199° (SSW) 2,999 9.9 15.1°
Drops below altitude 10° 06:45:43 10° 167° (SSE) 4,137 11.0 16.1°
Sets 06:52:07 0° 149° (SSE) 5,939 12.0 17.3°
